Location: Dayton
(39.7590°N, 84.1920°W)
Time: 09:58:23
(UTC-05:00)

Daily predictions for brighter satellites

Satellite Brightness Start Highest point End
(mag) Time Altitude Azimuth Time Altitude Azimuth Time Altitude Azimuth
COSMOS 2428 3.0 18:05:27 10° SSW 18:11:09 72° WNW 18:16:53 10° NNE
Cosmos 2237 Rocket 2.8 18:06:55 10° S 18:12:02 37° ESE 18:17:11 10° NE
Cosmos 1937 Rocket 4.2 18:07:24 10° NNW 18:12:30 60° WSW 18:17:38 10° S
Cosmos 1484 Rocket 3.2 18:09:13 10° SE 18:12:53 40° ENE 18:16:37 10° N
Cosmos 1743 Rocket 3.6 18:10:17 10° S 18:14:44 75° E 18:19:13 10° N
CZ-2C R/B 2.8 18:10:07 10° S 18:15:08 72° WSW 18:20:00 10° NNW
Milstar 3 4.3 18:09:38 10° WSW 18:15:46 31° S 18:21:41 10° SE
Cosmos 1726 2.9 18:12:47 10° NNE 18:16:10 30° ENE 18:19:31 10° SE
SJ-7 4.5 18:13:01 10° S 18:17:04 83° WSW 18:21:06 10° NNW
SL-16 R/B 3.7 18:14:12 10° SE 18:17:43 17° E 18:21:14 10° ENE
Cosmos 2151 3.6 18:14:23 10° SSE 18:18:10 33° E 18:21:58 10° NNE
Cosmos 1328 Rocket 3.6 18:15:16 10° N 18:19:44 83° E 18:24:11 10° S
Cosmos 1300 3.4 18:16:26 10° NNE 18:19:56 33° ENE 18:23:26 10° SE
Tsikada Rocket 4.5 18:14:17 10° SSW 18:20:38 69° W 18:27:03 10° N
MSX 3.8 18:15:32 10° SSE 18:21:15 84° ENE 18:27:00 10° NNW
Cosmos 1515 Rocket 3.5 18:23:24 10° N 18:27:53 75° E 18:32:19 10° SSE
Hubble Space Telescope 3.7 18:26:43 10° SSW 18:27:55 11° SSW 18:29:07 10° S
Aureole 2 Rocket 3.7 18:27:13 10° SSE 18:30:17 26° E 18:33:25 11° NE
Cosmos 836 Rocket 4.5 18:26:55 10° SSW 18:32:08 82° ESE 18:37:25 10° NNE
SKYMED 2 3.6 18:28:05 10° NNE 18:32:22 58° E 18:36:39 10° S
COSMOS 2441 4.4 18:27:34 10° SSE 18:32:26 88° WSW 18:37:19 10° NNW
Cosmos 1151 Rocket 3.0 18:28:55 10° N 18:33:08 56° E 18:37:20 10° SSE
BREEZE M DEB (TANK) 2.6 18:33:38 10° NW 18:36:05 24° NNE 18:37:01 18° ENE
Lacrosse 5 rocket 2.2 18:34:40 10° NNW 18:37:58 27° NE 18:40:18 16° E
Abrixas 3.1 18:35:20 10° SSW 18:38:05 38° SE 18:39:46 19° E
Cosmos 1500 Rocket 3.7 18:37:02 10° S 18:41:20 78° W 18:45:43 10° N
Cosmos 1844 Rocket 3.4 18:37:09 10° NNW 18:42:43 59° WSW 18:48:13 10° S
CZ-4 R/B 3.7 18:40:24 10° SSW 18:43:42 26° W 18:47:03 10° NW
Meteor 1-28 Rocket 3.3 18:41:28 10° NNE 18:45:07 53° E 18:48:45 10° S
Meteor 1-11 4.3 18:39:56 10° S 18:45:27 58° E 18:51:05 10° NNE
Cosmos 1634 Rocket 4.0 18:39:58 10° N 18:46:11 87° W 18:52:21 10° S
Cosmos 1328 4.3 18:50:41 10° SSW 18:54:34 63° W 18:58:30 10° N
Cosmos 372 Rocket 3.9 18:49:46 10° NNW 18:54:50 63° ENE 18:59:53 10° SSE
Sich 1 4.0 18:52:13 10° SE 18:55:54 26° E 18:57:08 23° ENE
NOSS 0 Rocket 4.1 18:51:40 10° SSW 18:57:53 78° WNW 19:04:08 10° NNE
Cosmos 1980 3.8 18:53:52 10° SSW 18:59:33 79° WNW 19:05:16 10° NNE
Cosmos 1633 Rocket 4.0 18:56:48 10° SE 19:00:25 25° E 19:00:37 25° E
Cosmos 2084 4.4 19:00:39 10° WSW 19:04:18 38° NW 19:07:19 14° NNE
Cosmos 540 Rocket 3.6 18:59:31 10° SSW 19:04:41 75° WNW 19:09:53 10° NNE
FENGYUN 3A 4.2 19:01:06 10° SE 19:05:51 33° ENE 19:10:37 10° N
SJ-6B 2.9 19:04:04 10° SSE 19:08:01 54° ENE 19:12:03 10° N
OTV 4 1.9 19:05:50 10° W 19:08:33 32° SSW 19:09:46 22° SSE
ALOS 2.9 19:04:38 10° SE 19:08:47 33° ENE 19:12:58 10° N
USA 215 3.2 19:02:29 10° ESE 19:09:00 71° NE 19:15:31 10° NW
Cosmos 44 3.7 19:04:08 10° SW 19:09:23 67° WNW 19:13:37 15° NNE
Meteor 2-10 3.9 19:04:32 10° N 19:09:38 85° ENE 19:14:52 10° S
Cosmos 2333 Rocket 3.0 19:08:54 10° SW 19:14:22 50° WNW 19:19:52 10° NNE
METEOR-M 4.0 19:10:28 10° SSE 19:15:48 78° ENE 19:21:11 10° N
Resurs 01 Rocket 2.2 19:17:34 35° NE 19:17:34 35° NE 19:21:10 10° N
Cosmos 1461 3.1 19:13:32 10° SSW 19:17:37 49° ESE 19:18:18 43° E
Cosmos 1703 3.1 19:15:42 10° S 19:19:34 76° E 19:21:52 24° NNE
COSMO-SKYMED 1 3.9 19:16:17 10° N 19:20:20 39° WNW 19:24:22 10° SW
Cosmos 1707 Rocket 3.4 19:18:55 10° N 19:23:12 62° E 19:27:29 10° SSE
Cosmos 2219 Rocket 3.7 19:18:47 10° WSW 19:23:50 33° WNW 19:28:55 10° N
Cosmos 2058 3.7 19:19:51 10° SSW 19:23:52 52° W 19:27:53 10° N
SL-19 R/B 4.3 19:23:11 10° SSE 19:29:06 67° ENE 19:34:43 10° N
FREGAT/IRIS 3.1 19:26:38 10° S 19:32:19 13° NNW 19:32:44 10° NNW
Cosmos 2278 Rocket 3.0 19:26:19 10° NNW 19:31:50 53° WSW 19:37:19 10° S
Cosmos 1666 Rocket 3.4 19:28:25 10° S 19:32:43 73° E 19:34:05 42° NNE
Cosmos 1626 2.0 19:29:58 10° S 19:33:43 87° E 19:34:02 73° NNE
Spot 2 Rocket 3.4 19:32:17 10° SSE 19:37:14 60° ENE 19:42:13 10° N
Cosmos 1340 Rocket 3.8 19:33:48 10° SSW 19:37:35 45° WNW 19:40:58 12° N
Cosmos 1538 Rocket 3.9 19:41:36 10° SSW 19:46:53 89° ESE 19:48:47 42° NNE
Cosmos 1356 Rocket 3.5 19:43:11 10° SSW 19:47:10 71° W 19:47:32 65° NW
BREEZE-M DEB (TANK) 4.2 19:45:53 10° WNW 19:46:31 14° NW 19:46:31 14° NW
USA 229 DEB 3.8 19:42:11 10° S 19:48:44 51° ESE 19:49:28 49° E
USA 229 3.8 19:42:18 10° S 19:48:50 50° ESE 19:49:31 49° E
Lacrosse 5 4.2 19:51:40 10° NNW 19:52:51 11° N 19:52:57 11° N
Cosmos 2237 Rocket 3.8 19:51:12 10° WSW 19:56:07 30° WNW 20:01:04 10° N
Nadezhda 4 Rocket 4.1 19:50:22 10° SSW 19:56:36 77° W 20:02:56 10° N
Aureole 1 Rocket 3.6 19:56:07 10° S 20:01:07 75° ESE 20:01:10 75° E
SL-16 R/B 2.5 19:55:38 10° SW 20:01:14 62° WNW 20:03:37 34° N
Cosmos 2369 Rocket 4.5 19:58:18 10° N 19:58:25 10° N 19:58:25 10° N
Iridium 4 Rocket 4.2 20:00:16 10° S 20:03:09 37° S 20:03:09 37° S
Cosmos 1900 4.4 20:00:06 10° NNW 20:04:51 76° W 20:04:51 76° W
Cosmos 2297 4.4 20:06:34 10° NNW 20:12:07 53° WSW 20:17:40 10° S
Cosmos 1092 Rocket 4.1 20:08:37 10° SSW 20:14:56 77° W 20:20:04 17° N
Lacrosse 5 rocket 3.1 20:13:39 10° WNW 20:16:06 29° W 20:16:06 29° W
ALOS 4.4 20:42:31 10° SSW 20:46:14 24° W 20:50:00 10° NW
Resurs 01 Rocket 4.3 20:55:07 17° WNW 20:55:07 17° WNW 20:56:54 10° NW
